N256VM SCPQ-SCBA

Flight info

Callsign N256VM
Flight time 1h 16m
Altitude 11000
Route MIKAS2L MIKAS DCT DOTGU UT102 UDOVI UDOVI3A
Aircraft S22T/L-SDGRY/S

Departure

Time 2026-05-04 00:58
Airport Mocopulli Airport (SCPQ)

Arrival

Time 2026-05-04 02:14
Airport Balmaceda Airport (SCBA)
Time Latitude Longitude Altitude Speed Heading
2026-05-04 00:41 -42.34885 -73.72099 531 ft 0 kts 217°
2026-05-04 00:56 -42.34893 -73.72107 531 ft 9 kts 206°
2026-05-04 00:56 -42.34907 -73.71955 531 ft 26 kts 87°
2026-05-04 00:57 -42.34926 -73.71685 531 ft 23 kts 78°
2026-05-04 00:57 -42.34816 -73.71649 529 ft 47 kts
2026-05-04 00:57 -42.34263 -73.71611 541 ft 105 kts
2026-05-04 00:57 -42.33471 -73.71496 789 ft 116 kts
2026-05-04 00:58 -42.32673 -73.71385 1092 ft 125 kts 14°
2026-05-04 00:58 -42.32022 -73.70492 1219 ft 146 kts 65°
2026-05-04 00:58 -42.32050 -73.69130 1483 ft 155 kts 115°
2026-05-04 00:58 -42.32873 -73.68229 1745 ft 155 kts 172°
2026-05-04 00:59 -42.33921 -73.68213 2018 ft 151 kts 191°
2026-05-04 00:59 -42.34977 -73.68283 2287 ft 152 kts 188°
2026-05-04 00:59 -42.36027 -73.68290 2549 ft 153 kts 187°
2026-05-04 00:59 -42.37101 -73.68277 2811 ft 154 kts 187°
2026-05-04 01:00 -42.38169 -73.68257 3068 ft 155 kts 187°
2026-05-04 01:00 -42.39245 -73.68249 3327 ft 154 kts 188°
2026-05-04 01:00 -42.40313 -73.68242 3578 ft 155 kts 189°
2026-05-04 01:00 -42.41405 -73.68239 3838 ft 157 kts 189°
2026-05-04 01:01 -42.42506 -73.68240 4099 ft 158 kts 189°
2026-05-04 01:01 -42.43613 -73.68242 4360 ft 158 kts 190°
2026-05-04 01:01 -42.44706 -73.68242 4636 ft 157 kts 190°
2026-05-04 01:01 -42.45784 -73.68237 5008 ft 151 kts 191°
2026-05-04 01:02 -42.46804 -73.68235 5376 ft 147 kts 191°
2026-05-04 01:02 -42.47820 -73.68238 5769 ft 144 kts 191°
2026-05-04 01:02 -42.48807 -73.68244 6138 ft 142 kts 192°
2026-05-04 01:02 -42.49797 -73.68250 6518 ft 141 kts 192°
2026-05-04 01:03 -42.50770 -73.68250 6880 ft 139 kts 192°
2026-05-04 01:03 -42.51727 -73.68252 7254 ft 138 kts 192°
2026-05-04 01:03 -42.52689 -73.68253 7636 ft 138 kts 193°
2026-05-04 01:03 -42.53644 -73.68255 8014 ft 137 kts 193°
2026-05-04 01:04 -42.54602 -73.68255 8399 ft 137 kts 194°
2026-05-04 01:04 -42.55556 -73.68258 8794 ft 136 kts 194°
2026-05-04 01:04 -42.56492 -73.68258 9190 ft 135 kts 195°
2026-05-04 01:04 -42.57434 -73.68256 9592 ft 134 kts 195°
2026-05-04 01:05 -42.58356 -73.68246 9978 ft 133 kts 195°
2026-05-04 01:05 -42.59282 -73.68224 10337 ft 132 kts 196°
2026-05-04 01:05 -42.60205 -73.68222 10697 ft 132 kts 197°
2026-05-04 01:05 -42.61115 -73.68233 11000 ft 136 kts 198°
2026-05-04 01:06 -42.62146 -73.68275 11020 ft 157 kts 197°
2026-05-04 01:06 -42.63292 -73.68307 11016 ft 171 kts 194°
2026-05-04 01:06 -42.64512 -73.68318 11016 ft 179 kts 193°
2026-05-04 01:06 -42.65767 -73.68317 11013 ft 184 kts 193°
2026-05-04 01:07 -42.67069 -73.68311 11014 ft 187 kts 192°
2026-05-04 01:07 -42.68381 -73.68304 11013 ft 189 kts 192°
2026-05-04 01:07 -42.69687 -73.68302 11010 ft 189 kts 193°
2026-05-04 01:07 -42.71004 -73.68303 11009 ft 188 kts 192°
2026-05-04 01:08 -42.72309 -73.68297 11012 ft 190 kts 192°
2026-05-04 01:08 -42.73639 -73.68296 11007 ft 191 kts 192°
2026-05-04 01:08 -42.74973 -73.68302 11008 ft 192 kts 192°
2026-05-04 01:08 -42.76295 -73.68307 11004 ft 192 kts 192°
2026-05-04 01:09 -42.77635 -73.68306 11004 ft 191 kts 192°
2026-05-04 01:09 -42.78967 -73.68281 11006 ft 193 kts 188°
2026-05-04 01:09 -42.80304 -73.67885 11005 ft 207 kts 171°
2026-05-04 01:09 -42.81596 -73.66905 11005 ft 219 kts 152°
2026-05-04 01:10 -42.82680 -73.65381 11001 ft 228 kts 135°
2026-05-04 01:10 -42.83627 -73.63621 11003 ft 229 kts 133°
2026-05-04 01:10 -42.84575 -73.61912 11003 ft 227 kts 136°
2026-05-04 01:10 -42.85570 -73.60237 11003 ft 227 kts 137°
2026-05-04 01:11 -42.86585 -73.58584 11003 ft 227 kts 137°
2026-05-04 01:11 -42.87604 -73.56925 10998 ft 228 kts 137°
2026-05-04 01:11 -42.88607 -73.55261 10998 ft 228 kts 136°
2026-05-04 01:11 -42.89597 -73.53588 11000 ft 227 kts 135°
2026-05-04 01:12 -42.90593 -73.51895 11002 ft 227 kts 135°
2026-05-04 01:12 -42.91574 -73.50235 11005 ft 227 kts 135°
2026-05-04 01:12 -42.92573 -73.48553 11003 ft 227 kts 135°
2026-05-04 01:12 -42.93557 -73.46898 11000 ft 227 kts 135°
2026-05-04 01:13 -42.94551 -73.45223 11000 ft 227 kts 135°
2026-05-04 01:13 -42.95542 -73.43547 10999 ft 226 kts 135°
2026-05-04 01:13 -42.96535 -73.41866 11001 ft 226 kts 135°
2026-05-04 01:13 -42.97512 -73.40210 11003 ft 226 kts 135°
2026-05-04 01:14 -42.98500 -73.38536 11001 ft 225 kts 135°
2026-05-04 01:14 -42.99488 -73.36862 11003 ft 225 kts 135°
2026-05-04 01:14 -43.00475 -73.35191 10999 ft 226 kts 135°
2026-05-04 01:14 -43.01450 -73.33537 10999 ft 226 kts 135°
2026-05-04 01:15 -43.02437 -73.31860 11001 ft 226 kts 135°
2026-05-04 01:15 -43.03426 -73.30177 11000 ft 226 kts 135°
2026-05-04 01:15 -43.04403 -73.28513 10999 ft 226 kts 135°
2026-05-04 01:15 -43.05389 -73.26835 11001 ft 226 kts 135°
2026-05-04 01:16 -43.06381 -73.25147 10998 ft 226 kts 135°
2026-05-04 01:16 -43.07368 -73.23464 10998 ft 226 kts 135°
2026-05-04 01:16 -43.08346 -73.21795 11000 ft 226 kts 135°
2026-05-04 01:16 -43.09330 -73.20117 11000 ft 226 kts 135°
2026-05-04 01:17 -43.10321 -73.18428 10999 ft 226 kts 135°
2026-05-04 01:17 -43.11298 -73.16763 10998 ft 227 kts 134°
2026-05-04 01:17 -43.12285 -73.15076 10998 ft 226 kts 134°
2026-05-04 01:17 -43.13272 -73.13389 10997 ft 226 kts 134°
2026-05-04 01:18 -43.14259 -73.11702 10998 ft 226 kts 134°
2026-05-04 01:18 -43.15232 -73.10038 10996 ft 226 kts 134°
2026-05-04 01:18 -43.16220 -73.08344 11000 ft 226 kts 134°
2026-05-04 01:18 -43.17206 -73.06652 10999 ft 226 kts 134°
2026-05-04 01:19 -43.18178 -73.04983 10999 ft 226 kts 134°
2026-05-04 01:19 -43.19169 -73.03285 10999 ft 226 kts 134°
2026-05-04 01:19 -43.20146 -73.01610 11000 ft 227 kts 134°
2026-05-04 01:19 -43.21133 -72.99913 10998 ft 227 kts 134°
2026-05-04 01:20 -43.22118 -72.98219 10998 ft 227 kts 134°
2026-05-04 01:20 -43.23104 -72.96525 10993 ft 227 kts 133°
2026-05-04 01:20 -43.24077 -72.94847 10993 ft 227 kts 134°
2026-05-04 01:20 -43.25067 -72.93140 11000 ft 227 kts 133°
2026-05-04 01:21 -43.26056 -72.91438 10985 ft 228 kts 133°
2026-05-04 01:21 -43.27035 -72.89756 10996 ft 229 kts 133°
2026-05-04 01:21 -43.28029 -72.88039 10990 ft 229 kts 133°
2026-05-04 01:21 -43.29017 -72.86325 10989 ft 229 kts 133°
2026-05-04 01:22 -43.30010 -72.84610 10982 ft 229 kts 133°
2026-05-04 01:22 -43.30998 -72.82900 10993 ft 228 kts 133°
2026-05-04 01:22 -43.31976 -72.81209 10988 ft 229 kts 133°
2026-05-04 01:22 -43.32973 -72.79487 10994 ft 229 kts 133°
2026-05-04 01:23 -43.33956 -72.77787 10991 ft 230 kts 133°
2026-05-04 01:23 -43.34956 -72.76059 10991 ft 229 kts 133°
2026-05-04 01:23 -43.35940 -72.74353 10982 ft 229 kts 133°
2026-05-04 01:23 -43.36939 -72.72620 10982 ft 230 kts 133°
2026-05-04 01:24 -43.37926 -72.70906 10989 ft 231 kts 133°
2026-05-04 01:24 -43.38924 -72.69175 10983 ft 231 kts 133°
2026-05-04 01:24 -43.39922 -72.67443 10979 ft 231 kts 133°
2026-05-04 01:24 -43.40924 -72.65701 10981 ft 232 kts 133°
2026-05-04 01:25 -43.41917 -72.63982 10979 ft 233 kts 133°
2026-05-04 01:25 -43.42933 -72.62217 10981 ft 235 kts 133°
2026-05-04 01:25 -43.43955 -72.60440 10978 ft 236 kts 133°
2026-05-04 01:25 -43.44964 -72.58679 10976 ft 237 kts 133°
2026-05-04 01:26 -43.45988 -72.56889 10971 ft 238 kts 133°
2026-05-04 01:26 -43.47022 -72.55085 10963 ft 239 kts 133°
2026-05-04 01:26 -43.48051 -72.53288 10962 ft 239 kts 133°
2026-05-04 01:26 -43.49078 -72.51502 10961 ft 241 kts 133°
2026-05-04 01:27 -43.50126 -72.49682 10951 ft 241 kts 132°
2026-05-04 01:27 -43.51239 -72.48008 10955 ft 236 kts 148°
2026-05-04 01:27 -43.52680 -72.46949 10968 ft 234 kts 167°
2026-05-04 01:27 -43.54253 -72.46346 10949 ft 232 kts 177°
2026-05-04 01:28 -43.55798 -72.45874 10946 ft 227 kts 178°
2026-05-04 01:28 -43.57353 -72.45420 10949 ft 230 kts 178°
2026-05-04 01:28 -43.58909 -72.44955 10941 ft 227 kts 178°
2026-05-04 01:28 -43.60435 -72.44490 10936 ft 225 kts 178°
2026-05-04 01:29 -43.61950 -72.44031 10938 ft 224 kts 178°
2026-05-04 01:29 -43.63491 -72.43556 10945 ft 226 kts 178°
2026-05-04 01:29 -43.65005 -72.43074 10932 ft 223 kts 178°
2026-05-04 01:29 -43.66521 -72.42587 10935 ft 222 kts 177°
2026-05-04 01:30 -43.68066 -72.42114 10914 ft 235 kts 177°
2026-05-04 01:30 -43.69650 -72.41617 10924 ft 231 kts 178°
2026-05-04 01:30 -43.71185 -72.41128 10920 ft 224 kts 177°
2026-05-04 01:30 -43.72707 -72.40645 10916 ft 220 kts 178°
2026-05-04 01:31 -43.74187 -72.40178 10917 ft 220 kts 178°
2026-05-04 01:31 -43.75703 -72.39706 10928 ft 227 kts 177°
2026-05-04 01:31 -43.77223 -72.39233 10910 ft 223 kts 178°
2026-05-04 01:31 -43.78712 -72.38763 10911 ft 219 kts 178°
2026-05-04 01:32 -43.80184 -72.38296 10912 ft 212 kts 178°
2026-05-04 01:32 -43.81599 -72.37847 10910 ft 204 kts 179°
2026-05-04 01:32 -43.82966 -72.37415 10904 ft 203 kts 179°
2026-05-04 01:32 -43.84355 -72.36977 10909 ft 203 kts 179°
2026-05-04 01:33 -43.85724 -72.36542 10921 ft 205 kts 179°
2026-05-04 01:33 -43.87137 -72.36098 10919 ft 210 kts 179°
2026-05-04 01:33 -43.88563 -72.35647 10919 ft 212 kts 179°
2026-05-04 01:33 -43.90003 -72.35190 10918 ft 214 kts 178°
2026-05-04 01:34 -43.91483 -72.34722 10916 ft 220 kts 178°
2026-05-04 01:34 -43.92987 -72.34247 10892 ft 223 kts 178°
2026-05-04 01:34 -43.94460 -72.33765 10901 ft 211 kts 179°
2026-05-04 01:34 -43.95898 -72.33316 10907 ft 216 kts 179°
2026-05-04 01:35 -43.97389 -72.32860 10901 ft 221 kts 179°
2026-05-04 01:35 -43.98869 -72.32391 10891 ft 218 kts 179°
2026-05-04 01:35 -44.00348 -72.31914 10889 ft 214 kts 179°
2026-05-04 01:35 -44.01778 -72.31450 10886 ft 212 kts 179°
2026-05-04 01:36 -44.03222 -72.30985 10886 ft 210 kts 179°
2026-05-04 01:36 -44.04636 -72.30536 10883 ft 209 kts 179°
2026-05-04 01:36 -44.06042 -72.30094 10880 ft 209 kts 179°
2026-05-04 01:36 -44.07484 -72.29641 10894 ft 212 kts 179°
2026-05-04 01:37 -44.08454 -72.29340 10902 ft 217 kts 179°
2026-05-04 01:37 -44.09947 -72.28873 10887 ft 223 kts 178°
2026-05-04 01:37 -44.11936 -72.28214 10853 ft 215 kts 178°
2026-05-04 01:37 -44.12885 -72.27897 10861 ft 197 kts 179°
2026-05-04 01:38 -44.14151 -72.27483 10889 ft 183 kts 182°
2026-05-04 01:38 -44.15434 -72.27103 10885 ft 197 kts 181°
2026-05-04 01:38 -44.17177 -72.26538 10865 ft 183 kts 180°
2026-05-04 01:38 -44.17979 -72.26272 10874 ft 175 kts 181°
2026-05-04 01:39 -44.19194 -72.25901 10892 ft 183 kts 182°
2026-05-04 01:39 -44.20477 -72.25507 10879 ft 197 kts 180°
2026-05-04 01:39 -44.21806 -72.25080 10880 ft 193 kts 180°
2026-05-04 01:39 -44.23122 -72.24651 10887 ft 194 kts 180°
2026-05-04 01:40 -44.24446 -72.24225 10881 ft 201 kts 180°
2026-05-04 01:40 -44.25828 -72.23780 10883 ft 205 kts 180°
2026-05-04 01:40 -44.27224 -72.23332 10882 ft 209 kts 180°
2026-05-04 01:40 -44.28665 -72.22876 10876 ft 212 kts 180°
2026-05-04 01:41 -44.30105 -72.22407 10877 ft 211 kts 179°
2026-05-04 01:41 -44.31521 -72.21944 10874 ft 211 kts 180°
2026-05-04 01:41 -44.32959 -72.21481 10872 ft 211 kts 180°
2026-05-04 01:41 -44.34407 -72.21022 10875 ft 213 kts 180°
2026-05-04 01:42 -44.35853 -72.20564 10869 ft 217 kts 179°
2026-05-04 01:42 -44.37340 -72.20082 10855 ft 216 kts 179°
2026-05-04 01:42 -44.38790 -72.19606 10864 ft 215 kts 179°
2026-05-04 01:42 -44.40258 -72.19133 10855 ft 214 kts 180°
2026-05-04 01:43 -44.41680 -72.18678 10845 ft 208 kts 180°
2026-05-04 01:43 -44.43069 -72.18229 10848 ft 201 kts 180°
2026-05-04 01:43 -44.44431 -72.17787 10857 ft 204 kts 181°
2026-05-04 01:43 -44.45824 -72.17348 10859 ft 209 kts 181°
2026-05-04 01:44 -44.47267 -72.16889 10856 ft 215 kts 180°
2026-05-04 01:44 -44.48736 -72.16413 10845 ft 215 kts 179°
2026-05-04 01:44 -44.50179 -72.15940 10853 ft 213 kts 180°
2026-05-04 01:44 -44.51635 -72.15467 10843 ft 217 kts 180°
2026-05-04 01:45 -44.53084 -72.14995 10849 ft 215 kts 180°
2026-05-04 01:45 -44.54555 -72.14517 10842 ft 216 kts 180°
2026-05-04 01:45 -44.57444 -72.13582 10843 ft 210 kts 180°
2026-05-04 01:46 -44.58858 -72.13130 10834 ft 209 kts 180°
2026-05-04 01:46 -44.60266 -72.12666 10832 ft 209 kts 180°
2026-05-04 01:46 -44.61701 -72.12200 10830 ft 212 kts 180°
2026-05-04 01:46 -44.63137 -72.11737 10837 ft 214 kts 180°
2026-05-04 01:47 -44.64605 -72.11261 10835 ft 215 kts 180°
2026-05-04 01:47 -44.66058 -72.10791 10833 ft 216 kts 180°
2026-05-04 01:47 -44.67521 -72.10320 10827 ft 219 kts 180°
2026-05-04 01:47 -44.69021 -72.09831 10829 ft 219 kts 180°
2026-05-04 01:48 -44.70490 -72.09345 10824 ft 216 kts 180°
2026-05-04 01:48 -44.71956 -72.08862 10820 ft 215 kts 180°
2026-05-04 01:48 -44.73399 -72.08395 10829 ft 216 kts 180°
2026-05-04 01:48 -44.74901 -72.07921 10814 ft 223 kts 180°
2026-05-04 01:49 -44.76403 -72.07424 10817 ft 225 kts 180°
2026-05-04 01:49 -44.77928 -72.06927 10805 ft 226 kts 180°
2026-05-04 01:49 -44.79459 -72.06420 10802 ft 221 kts 180°
2026-05-04 01:49 -44.80946 -72.05929 10807 ft 220 kts 180°
2026-05-04 01:50 -44.82445 -72.05440 10796 ft 219 kts 180°
2026-05-04 01:50 -44.83911 -72.04964 10796 ft 218 kts 180°
2026-05-04 01:50 -44.85382 -72.04480 10797 ft 215 kts 180°
2026-05-04 01:50 -44.86847 -72.03999 10796 ft 216 kts 180°
2026-05-04 01:51 -44.88294 -72.03529 10793 ft 215 kts 181°
2026-05-04 01:51 -44.89761 -72.03053 10793 ft 216 kts 181°
2026-05-04 01:51 -44.91231 -72.02575 10790 ft 217 kts 180°
2026-05-04 01:51 -44.92696 -72.02102 10794 ft 221 kts 180°
2026-05-04 01:52 -44.94209 -72.01605 10790 ft 223 kts 180°
2026-05-04 01:52 -44.95709 -72.01096 10788 ft 222 kts 180°
2026-05-04 01:52 -44.97227 -72.00594 10783 ft 222 kts 180°
2026-05-04 01:52 -44.98712 -72.00109 10785 ft 221 kts 181°
2026-05-04 01:53 -45.00195 -71.99621 10781 ft 220 kts 181°
2026-05-04 01:53 -45.01694 -71.99125 10776 ft 220 kts 180°
2026-05-04 01:53 -45.03161 -71.98635 10780 ft 217 kts 179°
2026-05-04 01:53 -45.04638 -71.98151 10771 ft 217 kts 181°
2026-05-04 01:54 -45.06107 -71.97664 10766 ft 216 kts 181°
2026-05-04 01:54 -45.07562 -71.97189 10768 ft 214 kts 181°
2026-05-04 01:54 -45.09028 -71.96711 10774 ft 217 kts 181°
2026-05-04 01:54 -45.10482 -71.96230 10764 ft 216 kts 180°
2026-05-04 01:55 -45.11934 -71.95750 10761 ft 213 kts 181°
2026-05-04 01:55 -45.13394 -71.95268 10763 ft 213 kts 181°
2026-05-04 01:55 -45.14823 -71.94795 10760 ft 213 kts 181°
2026-05-04 01:55 -45.16276 -71.94316 10755 ft 212 kts 181°
2026-05-04 01:56 -45.17698 -71.93847 10754 ft 212 kts 181°
2026-05-04 01:56 -45.19138 -71.93369 10759 ft 212 kts 181°
2026-05-04 01:56 -45.20598 -71.92886 10758 ft 216 kts 181°
2026-05-04 01:56 -45.22045 -71.92407 10756 ft 216 kts 181°
2026-05-04 01:57 -45.23516 -71.91915 10755 ft 217 kts 181°
2026-05-04 01:57 -45.24998 -71.91424 10752 ft 218 kts 181°
2026-05-04 01:57 -45.26467 -71.90938 10742 ft 216 kts 181°
2026-05-04 01:57 -45.27899 -71.90447 10745 ft 213 kts 181°
2026-05-04 01:58 -45.29355 -71.89935 10735 ft 215 kts 180°
2026-05-04 01:58 -45.30779 -71.89432 10730 ft 212 kts 181°
2026-05-04 01:58 -45.32209 -71.88931 10736 ft 211 kts 181°
2026-05-04 01:58 -45.33643 -71.88436 10731 ft 211 kts 181°
2026-05-04 01:59 -45.35072 -71.87939 10728 ft 211 kts 181°
2026-05-04 01:59 -45.36478 -71.87443 10733 ft 211 kts 180°
2026-05-04 01:59 -45.37905 -71.86937 10723 ft 209 kts 180°
2026-05-04 01:59 -45.39293 -71.86449 10737 ft 206 kts 181°
2026-05-04 02:00 -45.40703 -71.85965 10729 ft 209 kts 181°
2026-05-04 02:00 -45.42106 -71.85477 10731 ft 210 kts 181°
2026-05-04 02:00 -45.43533 -71.85043 10728 ft 209 kts 183°
2026-05-04 02:00 -45.44945 -71.84647 10735 ft 207 kts 184°
2026-05-04 02:01 -45.46368 -71.84245 10725 ft 207 kts 183°
2026-05-04 02:01 -45.47766 -71.83845 10723 ft 207 kts 183°
2026-05-04 02:01 -45.49158 -71.83445 10725 ft 207 kts 183°
2026-05-04 02:01 -45.50558 -71.83041 10718 ft 207 kts 183°
2026-05-04 02:02 -45.51962 -71.82634 10717 ft 207 kts 183°
2026-05-04 02:02 -45.53377 -71.82226 10719 ft 207 kts 183°
2026-05-04 02:02 -45.54790 -71.81822 10717 ft 207 kts 183°
2026-05-04 02:02 -45.56186 -71.81422 10719 ft 207 kts 183°
2026-05-04 02:03 -45.57607 -71.81014 10708 ft 207 kts 183°
2026-05-04 02:03 -45.59029 -71.80602 10699 ft 208 kts 183°
2026-05-04 02:03 -45.60433 -71.80197 10695 ft 207 kts 183°
2026-05-04 02:03 -45.61858 -71.79786 10696 ft 208 kts 183°
2026-05-04 02:04 -45.63270 -71.79375 10685 ft 208 kts 183°
2026-05-04 02:04 -45.64686 -71.78959 10680 ft 207 kts 183°
2026-05-04 02:04 -45.66045 -71.78554 10665 ft 185 kts 185°
2026-05-04 02:04 -45.67207 -71.78202 10556 ft 164 kts 188°
2026-05-04 02:05 -45.68313 -71.77914 10285 ft 160 kts 189°
2026-05-04 02:05 -45.69392 -71.77620 10018 ft 158 kts 189°
2026-05-04 02:05 -45.70461 -71.77312 9752 ft 155 kts 188°
2026-05-04 02:05 -45.71514 -71.77005 9420 ft 156 kts 189°
2026-05-04 02:06 -45.72604 -71.76697 9014 ft 161 kts 188°
2026-05-04 02:06 -45.73712 -71.76379 8617 ft 163 kts 187°
2026-05-04 02:06 -45.74823 -71.76058 8235 ft 167 kts 187°
2026-05-04 02:06 -45.75979 -71.75727 7850 ft 170 kts 186°
2026-05-04 02:07 -45.77146 -71.75387 7472 ft 172 kts 185°
2026-05-04 02:07 -45.78305 -71.75047 7101 ft 173 kts 185°
2026-05-04 02:07 -45.79479 -71.74755 6721 ft 169 kts 187°
2026-05-04 02:07 -45.80630 -71.74480 6348 ft 169 kts 186°
2026-05-04 02:08 -45.81795 -71.74158 5979 ft 170 kts 184°
2026-05-04 02:08 -45.82963 -71.73812 5629 ft 169 kts 182°
2026-05-04 02:08 -45.84038 -71.73465 5603 ft 151 kts 182°
2026-05-04 02:08 -45.85003 -71.73145 5534 ft 136 kts 185°
2026-05-04 02:09 -45.85937 -71.72869 5300 ft 137 kts 185°
2026-05-04 02:09 -45.86862 -71.72603 5085 ft 137 kts 184°
2026-05-04 02:09 -45.87825 -71.72333 4739 ft 145 kts 181°
2026-05-04 02:09 -45.88837 -71.72048 4405 ft 150 kts 178°
2026-05-04 02:10 -45.89880 -71.71745 4059 ft 154 kts 177°
2026-05-04 02:10 -45.90934 -71.71430 3693 ft 157 kts 177°
2026-05-04 02:10 -45.91969 -71.71529 3308 ft 146 kts 209°
2026-05-04 02:10 -45.92644 -71.72404 2998 ft 123 kts 261°
2026-05-04 02:11 -45.92242 -71.73136 2751 ft 129 kts
2026-05-04 02:11 -45.91584 -71.72003 2390 ft 155 kts 53°
2026-05-04 02:11 -45.91384 -71.70404 1776 ft 182 kts 95°
2026-05-04 02:11 -45.91610 -71.68731 1709 ft 159 kts 103°
2026-05-04 02:12 -45.91764 -71.67370 1685 ft 122 kts 95°
2026-05-04 02:12 -45.91868 -71.66065 1934 ft 139 kts 89°
2026-05-04 02:12 -45.91576 -71.64698 2139 ft 148 kts 76°
2026-05-04 02:12 -45.92136 -71.63903 2333 ft 104 kts 214°
2026-05-04 02:13 -45.92290 -71.64676 2211 ft 90 kts 286°
2026-05-04 02:13 -45.92072 -71.65546 2081 ft 90 kts 292°
2026-05-04 02:13 -45.91964 -71.66424 1899 ft 93 kts 289°
2026-05-04 02:13 -45.91797 -71.67339 1735 ft 97 kts 284°
2026-05-04 02:14 -45.91680 -71.68220 1687 ft 82 kts 281°
2026-05-04 02:14 -45.91588 -71.68911 1697 ft 41 kts 291°
2026-05-04 02:14 -45.91427 -71.69176 1703 ft 36 kts 307°
2026-05-04 02:14 -45.91349 -71.69225 1704 ft 6 kts 357°
2026-05-04 02:15 -45.91338 -71.69222 1704 ft 0 kts 20°